Casper, WY

9:52 AM MST on December 11, 2019 (GMT -0700)
Natrona County International

Weather History for KCPR - October, 2019

Change the Weather History Date:

Thursday, October 17, 2019

  Actual Average Record
Temperature  
Mean Temperature 61 °F 45 °F  
Max Temperature 74 °F 59 °F 79 °F (2003)
Min Temperature 48 °F 31 °F 19 °F (1948)
Degree Days  
Heating Degree Days 4 20  
Month to date heating degree days 349 299  
Since 1 July heating degree days 520 584  
Cooling Degree Days 0 0  
Month to date cooling degree days 0 0  
Year to date cooling degree days 441 422  
Growing Degree Days 12 (Base 50)    
Moisture  
Dew Point 17 °F    
Average Humidity 24    
Maximum Humidity 35    
Minimum Humidity 12    
Precipitation  
Precipitation 0.00 in 0.03 in 0.31 in (1971)
Month to date precipitation 0.42 0.64  
Year to date precipitation 11.12 10.80  
Snow  
Snow 0.00 in 0.20 in - ()
Month to date snowfall 2.4 3.5  
Since 1 July snowfall 2.4 5.3  
Since 1 September snowfall 2.4 5.3  
Snow Depth 0.00 in    
Sea Level Pressure  
Sea Level Pressure 29.56 in    
Wind  
Wind Speed 18 mph (SW)    
Max Wind Speed 36 mph    
Max Gust Speed 47 mph    
Visibility 10 miles    
Events      
T = Trace of Precipitation, MM = Missing Value Source: NWS Daily Summary

Daily Weather History Graph

Daily Weather History Graph

Search for Another Location

Airport or City:

Astronomy

Oct. 17, 2019 Rise Set
Actual Time 7:21 AM MDT 6:20 PM MDT
Civil Twilight 6:52 AM MDT 6:48 PM MDT
Nautical Twilight 6:19 AM MDT 7:21 PM MDT
Astronomical Twilight 5:47 AM MDT 7:54 PM MDT
Moon 8:49 PM MDT (10/17) 11:00 AM MDT (10/17)
Length of Visible Light 11h 56m
Length of Day
10h 58m
Waning Gibbous, 86% of the Moon is Illuminated
Oct 17
Waning Gibbous
Oct 21
Last Quarter
Oct 27
New
Nov 4
First Quarter
Nov 12
Full

Hourly Weather History & Observations

Time (MDT) Temp. Dew Point Humidity Pressure Visibility Wind Dir Wind Speed Gust Speed Precip Events Conditions
12:53 AM 53.1 °F 15.1 °F 22% 29.77 in 10.0 mi WSW 9.2 mph - N/A   Clear
1:53 AM 57.0 °F 14.0 °F 18% 29.74 in 10.0 mi North - - N/A   Clear
2:53 AM 52.0 °F 14.0 °F 22% 29.73 in 10.0 mi SW 15.0 mph - N/A   Clear
3:53 AM 50.0 °F 15.1 °F 25% 29.71 in 10.0 mi WSW 11.5 mph - N/A   Clear
4:53 AM 55.9 °F 12.9 °F 18% 29.68 in 10.0 mi SW 11.5 mph - N/A   Clear
5:53 AM 57.0 °F 12.9 °F 18% 29.67 in 10.0 mi SW 13.8 mph 24.2 mph N/A   Clear
7:53 AM 57.0 °F 12.9 °F 18% 29.68 in 10.0 mi SSW 13.8 mph - N/A   Clear
8:53 AM 60.1 °F 14.0 °F 16% 29.68 in 10.0 mi SSW 23.0 mph 29.9 mph N/A   Clear
9:53 AM 63.0 °F 14.0 °F 15% 29.66 in 10.0 mi SSW 26.5 mph 35.7 mph N/A   Clear
10:53 AM 63.0 °F 15.1 °F 16% 29.65 in 10.0 mi SSW 20.7 mph 31.1 mph N/A   Clear
11:53 AM 64.0 °F 17.1 °F 16% 29.62 in 10.0 mi SSW 19.6 mph - N/A   Clear
12:53 PM 71.1 °F 16.0 °F 12% 29.54 in 10.0 mi SW 26.5 mph 36.8 mph 0.00 in   Clear
1:53 PM 73.0 °F 17.1 °F 12% 29.47 in 10.0 mi SW 21.9 mph 42.6 mph N/A   Clear
2:53 PM 72.0 °F 18.0 °F 13% 29.47 in 10.0 mi WSW 32.2 mph 46.0 mph N/A   Clear
3:53 PM 70.0 °F 18.0 °F 14% 29.46 in 10.0 mi WSW 28.8 mph 40.3 mph N/A   Clear
4:53 PM 71.1 °F 18.0 °F 13% 29.42 in 10.0 mi WSW 26.5 mph 40.3 mph N/A   Clear
5:53 PM 66.9 °F 18.0 °F 15% 29.43 in 10.0 mi SW 20.7 mph 28.8 mph N/A   Clear
6:53 PM 64.9 °F 19.0 °F 17% 29.44 in 10.0 mi SW 17.3 mph - N/A   Clear
7:53 PM 57.9 °F 21.0 °F 24% 29.47 in 10.0 mi WSW 8.1 mph - N/A   Clear
8:53 PM 55.9 °F 21.0 °F 26% 29.46 in 10.0 mi SW 9.2 mph - N/A   Clear
9:53 PM 57.0 °F 23.0 °F 27% 29.44 in 10.0 mi SSW 9.2 mph - N/A   Clear
10:53 PM 55.9 °F 24.1 °F 29% 29.42 in 10.0 mi SSW 11.5 mph - N/A   Clear
11:53 PM 51.1 °F 24.1 °F 35% 29.44 in 10.0 mi WSW 10.4 mph - N/A   Clear